This demonstration page uses our WeatherBlox Daily Observations layout. Learn more.

Left ArrowRight Arrow

38.88101, -77.10428

Hourly Observations for September 4, 2022

Temp ( °F °C ) Dew Point ( °F °C ) Humidity (%) Winds ( mph kmh ) Pressure ( in mb ) Visibility ( mi km ) Precip ( " mm )
12:52 am 00:52 Partly Cloudy 75 23.9 67 19.4 76 76 S 7 11 30.17 1022 10 16 0.00 0.00
1:52 am 01:52 Mostly Cloudy 74 23.3 67 19.4 79 79 S 5 7 30.16 1022 10 16 0.00 0.00
2:52 am 02:52 Mostly Cloudy 73 22.8 67 19.4 81 81 S 6 9 30.16 1021 10 16 0.00 0.00
3:52 am 03:52 Mostly Cloudy 73 22.8 67 19.4 81 81 S 7 11 30.16 1021 10 16 0.00 0.00
4:52 am 04:52 Mostly Cloudy 72 22.2 67 19.4 84 84 SSW 5 7 30.15 1021 10 16 0.00 0.00
5:52 am 05:52 Mostly Cloudy 73 22.8 67 19.4 81 81 SSW 6 9 30.15 1021 10 16 0.00 0.00
6:52 am 06:52 Partly Cloudy 72 22.2 67 19.4 84 84 SSW 3 6 30.16 1021 10 16 0.00 0.00
7:52 am 07:52 Partly Cloudy 74 23.3 69 20.6 85 85 SSW 5 7 30.17 1022 10 16 0.00 0.00
8:52 am 08:52 Partly Cloudy 77 25 70 21.1 79 79 S 7 11 30.16 1021 10 16 0.00 0.00
9:52 am 09:52 Partly Cloudy 79 26.1 70 21.1 74 74 S 8 13 30.16 1021 10 16 0.00 0.00
10:52 am 10:52 Partly Cloudy 82 27.8 70 21.1 67 67 SSE 6 9 30.15 1021 10 16 0.00 0.00
11:52 am 11:52 Partly Cloudy 85 29.4 70 21.1 61 61 SSE 8 13 30.14 1021 10 16 0.00 0.00
12:52 pm 12:52 Sunny 89 31.7 69 20.6 52 52 S 12 19 30.12 1020 10 16 0.00 0.00
1:48 pm 13:48 Mostly Cloudy 88 31 70 21 55 55 S 10 17 30.11 1020 10 16 0.00 0.00
1:52 pm 13:52 Mostly Cloudy 88 31.1 70 21.1 55 55 S 13 20 30.10 1019 10 16 0.00 0.00
2:52 pm 14:52 Mostly Cloudy 90 32.2 69 20.6 50 50 S 12 19 30.08 1019 9 14 0.00 0.00
3:52 pm 15:52 Mostly Cloudy 89 31.7 66 18.9 47 47 S 9 15 30.06 1018 10 16 0.00 0.00
4:52 pm 16:52 Mostly Cloudy 88 31.1 67 19.4 50 50 S 10 17 30.04 1017 10 16 0.00 0.00
5:52 pm 17:52 Mostly Cloudy 87 30.6 67 19.4 51 51 S 10 17 30.04 1017 10 16 0.00 0.00
6:52 pm 18:52 Mostly Cloudy 85 29.4 69 20.6 59 59 SSE 12 19 30.04 1017 10 16 0.00 0.00
7:52 pm 19:52 Mostly Cloudy 82 27.8 67 19.4 60 60 SSE 10 17 30.05 1018 10 16 0.00 0.00
8:52 pm 20:52 Mostly Cloudy 81 27.2 65 18.3 58 58 S 7 11 30.07 1018 10 16 0.00 0.00
9:52 pm 21:52 Mostly Cloudy 80 26.7 66 18.9 62 62 S 9 15 30.08 1019 10 16 0.00 0.00
10:52 pm 22:52 Mostly Cloudy 79 26.1 66 18.9 65 65 S 10 17 30.08 1019 10 16 0.00 0.00
11:52 pm 23:52 Mostly Cloudy 78 25.6 66 18.9 67 67 SSW 9 15 30.08 1019 10 16 0.00 0.00

Powered by AerisWeather